Vertical_Velocity
-3 -8 1 2 2 4 3 2 2 -6 -5 9 -0 -1 -6 -4 6 -0 6 0 -1 -5 7 -5 -1 5 8 6 6 2 -0 10 -3 -3 -7 3 -1 -8 -4 2 -3 -2 1 -2
-12 1 3 1 -1 1 -1 1 -4 -6 -4 6 -3 -8 -3 -0 -5 -6 -0 4 0 5 7 4 3 -3 10 -3 3 1 7 1 -1 0 -3 -3 -0 2 -2 7 3 -7 -7 0
-0 3 -1 0 -2 -2 -2 4 -1 13 -6 -8 -3 -6 -5 -4 1 5 2 -4 0 -5 -2 5 3 -1 -5 8 2 -7 0 1 1 -5 4 1 1 12 -5 -8 5 6 15 -2
2 0 2 -0 0 2 -0 1 2 0 -1 -2 -1 -9 -5 -2 -2 -0 3 -0 3 0 8 7 6 1 -1 1 3 4 5 3 -1 -4 -1 -10 -8 -7 6 0 3 1 -3 -0
-14 -2 -1 -2 10 1 -2 1 4 2 1 2 -6 5 -13 -0 -2 -2 -1 -4 4 5 -10 13 -0 -9 -10 -3 -14 -2 10 15 2 -2 3 -3 -0 -2 6 2 -4 3 -3 13
2 5 -4 5 1 3 2 -5 -2 -1 1 4 -6 7 -6 2 9 -2 -4 8 24 19 27 30 54 46 5 8 10 0 3 7 5 2 4 -5 -3 -0 1 4 -7 -2 13 12
-5 3 1 -4 -2 -5 -4 -3 -4 -6 -2 -7 -1 7 15 3 2 10 7 4 10 17 16 10 4 -1 9 29 23 4 6 5 -4 -1 2 -2 0 0 1 2 -2 -0 2 4
1 -10 -1 0 4 6 0 -0 -2 -0 1 1 -0 -3 15 8 3 6 5 12 4 -4 4 13 5 2 2 3 11 14 29 15 7 6 5 2 -1 -2 0 8 -1 3 1 -1
-0 1 -5 -2 1 -1 -4 -1 -4 2 -1 4 -2 -1 -12 -7 -6 -5 -3 -6 5 -2 -0 10 3 3 2 0 5 -3 1 11 14 9 12 5 4 -2 -4 -0 6 0 -5 1
-1 -1 3 4 -7 -8 4 -1 -1 -3 -1 0 2 1 5 -6 -3 -1 -6 -2 -1 -1 -5 3 -1 2 4 -1 -3 2 -1 4 -3 37 1 2 -3 2 -1 1 -4 -4 8 7
1 -0 -1 -11 -1 8 -13 -4 0 -0 0 1 -0 4 8 5 4 3 3 2 5 -0 -0 1 -0 -1 7 10 -5 -5 -3 -1 -0 2 30 1 0 0 2 6 -2 -3 6 5
-3 -1 -1 1 13 4 5 6 1 1 1 0 -2 8 3 4 5 4 3 -3 -5 -2 -1 2 1 -2 -11 -14 4 -2 -7 -5 -4 -2 2 3 15 3 -1 6 1 -0 -0 2
-3 -4 1 5 -11 -12 -3 -0 2 0 -2 5 -1 4 -1 -3 -4 -2 0 -3 -2 -0 -3 -8 -6 -3 -6 -11 -12 -5 3 -5 -6 -4 -0 -1 -5 17 5 -0 1 0 0 2
-7 -1 -6 -6 -1 -0 -3 -2 -0 -3 -4 3 7 -1 -10 -4 -0 -3 -3 -1 -3 3 -0 -10 -12 -9 -4 -8 -7 -11 -9 -2 -0 -0 -1 -2 1 -1 7 -0 3 -1 1 -2
-9 -2 -6 1 -0 -3 2 2 1 -5 7 -3 4 0 3 4 6 4 8 -0 -1 -4 -3 -4 -4 -4 1 -4 -5 -1 -5 -10 -4 -3 -1 -1 -0 -0 -2 -1 1 3 -2 1
-0 1 -1 4 2 -3 -2 -0 -0 0 -1 -1 -1 1 8 3 -0 -6 -3 -3 0 6 -1 -5 -0 -1 -5 -4 -2 -4 -5 -5 -3 -7 -5 -3 -1 2 3 1 -2 3 2 -1
-2 -2 3 -1 -1 -0 -10 5 1 2 -0 6 -0 6 0 -7 -2 5 1 5 3 -0 -2 -4 -3 1 0 -3 -2 -4 -4 -2 1 -3 -4 -2 0 -1 -1 -2 -2 0 -2 -0
-1 0 -0 -0 -1 -7 -8 -1 1 -0 0 -0 -0 -1 3 4 5 -6 -2 -3 -4 -3 0 2 4 -1 2 1 0 -3 -3 -3 -2 -2 -1 -1 -2 -3 1 1 2 2 4 -1
1 -1 -2 -5 -0 -3 -4 -5 -1 -5 -6 1 -1 -1 0 -2 -5 -4 -0 0 1 -1 3 1 3 2 1 -1 2 -0 -2 -2 -1 -1 -2 -1 1 -1 2 2 -0 4 1 4
-3 -1 -9 -2 -3 -2 -8 -4 5 -3 -1 0 4 1 2 -2 -5 -1 -1 -2 -4 -5 -5 -5 1 -7 2 5 5 0 1 2 1 -1 -2 -1 -1 -2 3 3 4 0 4 3
-2 -3 -2 0 -0 -3 -4 -0 3 -9 -17 -3 5 3 1 2 10 -0 -2 -4 2 -0 -1 -0 -3 -3 8 6 8 3 5 4 4 2 3 2 -1 -0 1 5 2 2 3 7
-2 -2 -1 -3 -3 -6 1 -6 -11 -10 -6 5 -4 1 -1 3 2 0 -1 -2 -2 -3 -3 -5 -8 -1 -1 2 -3 10 1 7 4 3 2 7 4 3 -1 1 5 -0 1 -0
-10 -10 -9 -11 -13 -1 -3 -4 -7 -1 -2 2 1 4 2 -1 -1 6 0 -2 2 1 -0 2 -4 -1 6 11 5 12 8 4 3 3 1 1 1 3 1 0 1 -1 -0 1
1 -0 -3 -7 -7 -5 -3 1 15 6 7 1 3 1 0 -3 2 7 -0 -1 -2 2 -4 1 5 3 1 -2 -1 9 7 -7 1 -4 4 5 -2 -1 4 8 0 4 -6 8
-2 -1 -2 -1 1 2 8 -4 -0 7 0 -2 4 0 4 1 -2 6 1 -3 -4 0 -3 -2 -5 -3 3 -0 -1 2 -1 6 -0 0 4 2 2 -1 -3 -4 1 -0 -5 -3
1 -1 -4 -7 5 -6 -1 -0 -5 -1 0 3 -1 -3 -0 -0 3 1 8 2 2 2 4 1 2 3 2 1 -1 -3 0 -0 -3 -3 -1 1 -2 1 2 0 3 -1 3 5
Height
1512 1519 1532 1526 1524 1523 1521 1517 1514 1505 1499 1497 1486 1483 1476 1474 1476 1477 1476 1481 1487 1493 1498 1503 1508 1513 1518 1523 1528 1532 1536 1541 1543 1549 1555 1561 1566 1569 1573 1576 1578 1580 1583 1586
1521 1528 1525 1522 1519 1520 1521 1520 1517 1504 1503 1506 1492 1482 1472 1468 1464 1470 1474 1478 1482 1487 1493 1495 1502 1509 1515 1520 1525 1529 1533 1537 1541 1545 1552 1558 1563 1567 1568 1573 1573 1575 1579 1583
1528 1527 1523 1523 1523 1522 1522 1523 1520 1519 1510 1500 1497 1482 1473 1462 1459 1466 1470 1475 1478 1482 1488 1491 1499 1507 1512 1517 1522 1526 1530 1534 1537 1543 1549 1556 1561 1564 1563 1569 1572 1573 1572 1574
1527 1522 1522 1522 1522 1521 1525 1521 1520 1520 1523 1529 1519 1517 1483 1470 1466 1467 1469 1471 1475 1479 1485 1489 1496 1503 1509 1516 1521 1523 1529 1529 1533 1538 1543 1549 1551 1555 1556 1562 1567 1571 1572 1573
1530 1524 1524 1524 1526 1523 1526 1523 1523 1521 1524 1527 1519 1523 1492 1481 1469 1468 1471 1476 1476 1479 1484 1490 1495 1501 1506 1513 1518 1522 1526 1527 1528 1534 1539 1543 1548 1553 1557 1560 1564 1569 1570 1569
1528 1521 1525 1528 1528 1526 1525 1525 1524 1522 1525 1532 1517 1521 1510 1507 1513 1492 1481 1473 1478 1480 1486 1493 1498 1502 1504 1509 1513 1517 1520 1524 1526 1531 1534 1539 1544 1548 1552 1557 1558 1562 1564 1567
1532 1529 1529 1531 1530 1529 1529 1533 1552 1550 1544 1529 1511 1517 1533 1523 1516 1516 1499 1494 1492 1492 1486 1491 1496 1499 1502 1509 1514 1516 1518 1520 1522 1526 1531 1535 1541 1545 1549 1553 1554 1556 1559 1562
1554 1548 1538 1538 1537 1534 1529 1531 1546 1534 1533 1533 1508 1506 1535 1532 1528 1516 1511 1510 1504 1500 1504 1493 1500 1504 1503 1506 1510 1513 1518 1520 1521 1524 1528 1532 1536 1541 1544 1548 1551 1552 1554 1555
1555 1547 1543 1541 1539 1541 1534 1536 1526 1531 1530 1534 1521 1510 1515 1526 1527 1522 1519 1513 1510 1506 1507 1499 1497 1502 1504 1504 1507 1512 1513 1513 1521 1523 1525 1527 1531 1534 1538 1541 1545 1548 1550 1551
1550 1556 1551 1547 1542 1540 1536 1530 1529 1544 1544 1520 1513 1540 1551 1541 1535 1534 1527 1523 1518 1514 1513 1505 1501 1501 1502 1504 1506 1509 1510 1512 1514 1517 1521 1524 1526 1530 1532 1535 1539 1542 1545 1547
1549 1551 1560 1553 1559 1558 1543 1539 1528 1529 1521 1527 1520 1559 1557 1557 1551 1542 1531 1530 1526 1521 1518 1513 1507 1501 1498 1501 1505 1507 1509 1510 1511 1512 1512 1518 1521 1524 1528 1528 1530 1535 1539 1542
1551 1551 1564 1565 1560 1558 1556 1548 1531 1528 1536 1538 1541 1567 1569 1561 1547 1540 1536 1541 1534 1531 1524 1516 1509 1504 1500 1497 1498 1504 1507 1509 1510 1510 1509 1508 1515 1517 1519 1522 1525 1528 1530 1534
1553 1555 1560 1556 1559 1563 1565 1558 1545 1535 1540 1555 1554 1569 1568 1563 1561 1555 1551 1546 1541 1532 1525 1518 1508 1504 1501 1502 1501 1499 1502 1504 1506 1506 1506 1507 1506 1510 1511 1515 1518 1520 1523 1525
1557 1565 1574 1587 1587 1582 1584 1571 1564 1554 1562 1570 1576 1571 1564 1565 1558 1555 1553 1544 1538 1535 1527 1523 1517 1515 1511 1508 1505 1499 1496 1496 1498 1500 1501 1502 1503 1504 1506 1508 1511 1513 1515 1517
1564 1581 1577 1583 1582 1578 1578 1578 1574 1572 1577 1579 1585 1581 1576 1566 1558 1559 1555 1550 1545 1538 1530 1525 1524 1518 1511 1505 1501 1498 1494 1493 1493 1491 1492 1493 1496 1498 1499 1500 1502 1505 1507 1508
1566 1578 1579 1584 1574 1569 1578 1582 1581 1579 1580 1580 1578 1578 1578 1572 1568 1561 1555 1548 1540 1532 1527 1529 1524 1513 1507 1501 1497 1492 1489 1488 1488 1486 1485 1486 1488 1491 1491 1491 1494 1496 1499 1499
1565 1574 1571 1580 1566 1564 1583 1592 1588 1588 1585 1583 1581 1584 1575 1568 1564 1562 1557 1553 1547 1541 1533 1523 1515 1509 1504 1499 1493 1486 1484 1483 1481 1480 1479 1479 1481 1480 1482 1483 1486 1488 1490 1493
1566 1568 1564 1569 1568 1600 1600 1591 1590 1589 1587 1585 1583 1579 1574 1571 1566 1563 1557 1550 1542 1536 1530 1523 1515 1507 1500 1493 1487 1483 1481 1478 1475 1473 1473 1472 1473 1474 1476 1476 1479 1481 1484 1485
1560 1563 1575 1583 1588 1597 1589 1589 1588 1588 1589 1581 1580 1575 1571 1568 1564 1561 1557 1552 1546 1540 1532 1525 1517 1508 1499 1493 1486 1481 1477 1474 1471 1468 1466 1467 1467 1467 1469 1470 1472 1476 1478 1478
1561 1561 1576 1585 1597 1616 1595 1584 1582 1579 1582 1579 1577 1573 1570 1566 1563 1561 1557 1552 1547 1542 1535 1528 1519 1509 1501 1493 1485 1479 1475 1470 1466 1463 1462 1461 1461 1462 1463 1465 1466 1468 1470 1471
1577 1579 1588 1586 1592 1596 1588 1584 1579 1588 1594 1579 1577 1574 1570 1568 1566 1562 1557 1552 1547 1541 1535 1529 1519 1510 1501 1492 1484 1477 1471 1465 1462 1460 1458 1457 1456 1457 1458 1459 1460 1461 1463 1465
1593 1594 1598 1586 1601 1606 1586 1585 1589 1587 1582 1579 1576 1573 1570 1567 1564 1560 1556 1551 1546 1540 1534 1527 1519 1509 1501 1490 1483 1477 1469 1466 1461 1458 1456 1454 1453 1452 1453 1454 1453 1455 1456 1458
1593 1590 1596 1596 1599 1585 1585 1584 1583 1582 1580 1578 1576 1573 1571 1568 1564 1560 1556 1551 1547 1542 1536 1530 1521 1512 1503 1493 1485 1479 1473 1467 1463 1459 1456 1452 1451 1449 1448 1449 1450 1449 1452 1452
1580 1580 1587 1590 1586 1584 1583 1582 1582 1580 1580 1578 1576 1573 1570 1568 1565 1561 1556 1551 1546 1542 1536 1530 1522 1515 1507 1498 1490 1486 1481 1473 1470 1462 1458 1456 1453 1451 1449 1448 1447 1447 1450 1447
1577 1578 1582 1583 1583 1583 1583 1582 1581 1580 1579 1577 1575 1573 1571 1567 1564 1561 1558 1553 1549 1544 1539 1532 1526 1519 1513 1506 1498 1494 1488 1481 1475 1472 1467 1462 1459 1457 1456 1455 1453 1451 1450 1449
1576 1577 1584 1590 1580 1581 1581 1581 1580 1579 1578 1576 1574 1572 1570 1567 1564 1561 1557 1553 1549 1544 1539 1533 1527 1521 1516 1510 1504 1497 1494 1489 1483 1478 1474 1471 1467 1465 1463 1461 1459 1458 1456 1454